Погода в Аккудуке

Погода в Аккудуке : погода сейчас, прогноз погоды и архив. Всё, что Вы хотите узнать о погоде в Аккудуке!

Хотите узнать прогноз погоды в Аккудуке? Тогда Вам сюда: Погода в Аккудуке

Поиск расширенной информации на нашем сайте:

Другие новости

Новости СМИ2

Главная страница сайта

Новости сайта

03.07.2017

Напоминаем, что на нашем специализированном сайте Метеоцентр.Азия вы можете получить высокодетализированные автоматические прогнозы погоды по пунктам России, СНГ и мира в авиационном формате (включающие направление и скорость ветра, видимость, явления погоды, количество и форму облачности, нижнюю и верхнюю границу облачности).

Рекомендуем: Кондиционеры Panasonic inverter

Погода в Аккудуке - сегодня

Время (UTC), дата Ветер
(°,м/с) 
Видим.   Явления Облачность Т
(°С)
Тd
(°С)
f(%) Тe
(°С)
Pmin
(гПа)
dP
(гПа)
Po
(мм)
O2
(г/м3)
Тmin Tmax R s Состояние
почвы
12 20.08.17 110 (В) 20000 м    1/0 средняя 
[Ac trans]
+34 -0.6 11 +34  1016.5  -1.4  756  271           
15 20.08.17 090 (В) 20000 м    ясно 
+32.6 -0.9 12 +33  1015.3  -1.2  755  272    +34.6       
18 20.08.17 070 (В) 20000 м    ясно 
+27.2 -2.6 14 +27  1017.1  1.4  756  277    +34.7       
21 20.08.17 090 (В) 20000 м    ясно 
+24.5 -0.5 19 +25  1017.5  0.3  756  280           
00 21.08.17 040 (СВ) 20000 м    ясно 
+21.5 +0.6 25 +22  1017.8  0.2  756  282           
03 21.08.17 тихо ()   20000 м    ясно 
+19.8 -2.5 22 +20  1017.8  756  284           
06 21.08.17 110 (В) 20000 м    5/0 средняя 
[Ac cast]
+29.2 -0.1 15 +29  1016.2  -1.3  755  275  +16.6         
09 21.08.17 110 (В) 20000 м    9/0 средняя 
[Ac cast]
+33.1 -0.5 12 +33  1014.9  -1.2  755  271           
12 21.08.17 110 (В) 20000 м    5/0 средняя 
[Ac cast]
+34 -3.3 9 +34  1013.4  -1.4  753  270           
15 21.08.17 050 (СВ) 20000 м    6/0 средняя 
[Ac cast]
+32.1 -4.7 9 +32  1012.9  -0.6  753  272    +34.8       
18 21.08.17 040 (СВ) 20000 м    3/0 средняя 
[Ac cuf]
+27.1 -5.9 11 +27  1013.7  0.6  753  277    +34.8       
21 21.08.17 040 (СВ) 20000 м    ясно 
+24.7 -2.7 16 +25  1014.2  0.4  754  279           
00 22.08.17 020 (С) 20000 м    ясно 
+22.1 -1.4 21 +22  1014.5  0.2  754  281           
03 22.08.17 330 (СЗ) 20000 м    3/0 средняя 
[Ac cast]
+22.3 -3.2 18 +22  1013.1  -1.3  753  281           
06 22.08.17 060 (СВ) 20000 м    ясно 
+30.8 -1.9 12 +31  1013.4  0.5  753  273  +17.8         
09 22.08.17 100 (В) 20000 м    ясно 
+35.4 -0.8 10 +35  1011.5  -1.7  752  268           
12 22.08.17 110 (В) 10  20000 м  пыльный позёмок  ясно 
+36.3 -0.1 10 +36  1010.6  -0.9  751  267           
15 22.08.17 100 (В) 20000 м    ясно 
+33.2 -1.2 11 +33  1011.7  752  270    +37       
18 22.08.17 080 (В) 20000 м    ясно 
+28.6 -2.5 13 +29  1013.9  2.1  754  275    +37       
21 22.08.17 090 (В) 20000 м    ясно 
+26.2 -2.7 15 +26  1014.7  0.7  754  278           
00 23.08.17 100 (В) 20000 м    ясно 
+23.5 -3 17 +24  1015.2  0.4  755  280           
03 23.08.17 тихо ()   20000 м    ясно 
+20.5 -0.2 25 +21  1016.5  1.2  755  283           
06 23.08.17 090 (В) 20000 м    ясно 
+30 -1.4 13 +30  1016.5  0.3  756  274  +18.9         
09 23.08.17 100 (В) 20000 м  пыльный позёмок  ясно 
+33 -1.3 11 +33  1015  -1.4  755  271           
12 23.08.17 060 (СВ) 10{15}  20000 м  пыльный позёмок  ясно 
+34.5 -2.9 9 +35  1013.3  -1.6  753  270           
Время (UTC), дата Ветер
(°,м/с) 
Видим.   Явления Облачность Т
(°С)
Тd
(°С)
f(%) Тe
(°С)
Pmin
(гПа)
dP
(гПа)
Po
(мм)
O2
(г/м3)
Тmin Tmax R s Состояние
почвы

Для получения пояснительной информации подведите курсор к названию столбца.

ПОГОДА в Аккудуке - архив

Всё, что Вы хотите узнать о погоде в Аккудуке - удобно и подробно!

Выберите нужную дату (начиная с 1 января 2015* года) и нажмите кнопку "Найти".
Будут отображены архивные сводки погоды по пункту Аккудук, начиная с указанной даты.


Отображать данные в формате CSV (для использования в таблицах Excel)


Внимание! Наш архив погоды предназначен исключительно для личного некоммерческого использования в познавательных целях. Если Вам необходимы официальные справки о состоянии погоды (для производственных, юридических, коммерческих и т.п. целей), обращайтесь в органы Росгидромета.

*Примечание: данная дата относится к архиву по метеостанциям СССР (Россия, СНГ, Балтия).
Архив по метеостанциям Зарубежной Европы и Азии (кроме Китая) хранится 10 дней, по другим регионам земного шара (Китай, Африка, Америка, Австралия, Океания) - 1 день.

Аккудук - район местоположения метеостанции


Название, широта, долгота, высота метеостанции:
Аккудук 42.1°ш. 54.1°д. 78 м над ур. моря [Казахстан]

Дополнительная информация

В oтличие oт бoльшинства пoгoдных сайтoв мы публикуем пoдрoбную метеoинфoрмацию в детальнoм прoфессиoнальнoм фoрмате.

Характеристики температуры и влажнoсти вoздуха измеряются на высoте 2 м в тени вдали oт зданий и деревьев.
Скoрoсть ветра измеряется на высoте 10 м (на урoвне рoста челoвека скoрoсть ветра ниже в 1.5-2 раза). Если метеoстанция нахoдится в гoрoде или в лесу, тo скoрoсть ветра занижена на 2-4 м/с пo сравнению с oткрытым местoм. Скoрoсть ветра над акватoриями крупных рек и oзёр, а также на вершинах хoлмoв на 2-5 м/с выше, чем в oбычных услoвиях.
Атмoсфернoе давление в разных тoчках местнoсти мoжет значительнo oтличаться oт давления на метеoстанции, в зависимoсти oт услoвий рельефа (при пoдъёме на 10 м давление пoнижается примернo на 1 мм рт.ст.).